Regional Weather Roundup
Issued by NWS

Home | Current Version | Previous Version | Text Only | Print | Product List | Glossary Off
Versions: 1 2 3 4 5 6 7 8 9 10 11 12 13 14 15 16 17 18 19 20 21 22 23 24 25 26 27 28 29 30 31 32 33 34 35 36 37 38 39 40 41 42 43 44 45 46 47 48 49 50

000
ASUS43 KMPX 222310
RWRMN
WEATHER ROUNDUP FOR MINNESOTA
NATIONAL WEATHER SERVICE TWIN CITIES/CHANHASSEN MN
600 PM CDT FRI MAY 22 2015


NOTE: "FAIR" INDICATES FEW OR NO CLOUDS BELOW 12,000 FEET WITH NO
SIGNIFICANT WEATHER AND/OR OBSTRUCTIONS TO VISIBILITY. N/A MEANS
CURRENT SKY AND/OR WEATHER CONDITIONS ARE NOT AVAILABLE.

MNZ060>063-068>070-230000-
   Twin Cities Metro

CITY           SKY/WX    TMP DP  RH WIND       PRES   REMARKS
TWIN CITIES    MOSUNNY   74  35  24 SE6       30.18S
ST PAUL        MOSUNNY   72  38  29 SE6       30.18F
CRYSTAL        MOSUNNY   75  34  22 VRB3      30.17S
BLAINE         MOSUNNY   73  34  23 CALM      30.18F
LAKEVILLE      PTSUNNY   72  36  26 SE3       30.18F
EDEN PRAIRIE   MOSUNNY   73  34  23 CALM      30.17F
SOUTH ST PAUL  MOSUNNY   73  33  22 CALM      30.17F
LAKE ELMO      FAIR      72  36  26 NW5       30.20S
$$
MNZ001>005-007-008-013>017-022>024-027-028-230000-
   Northwest Minnesota

CITY           SKY/WX    TMP DP  RH WIND       PRES   REMARKS
BEMIDJI        SUNNY     74  35  24 NW8       30.14F
HALLOCK        MOSUNNY   79  36  21 SW15      30.09S
ROSEAU         SUNNY     75  39  27 SW12G21   30.10F
WARROAD        SUNNY     73  43  33 SW10G20   30.10S
THIEF RVR FALL SUNNY     75  34  22 SW10      30.13F
CROOKSTON      SUNNY     75  37  25 SW12      30.13F
FOSSTON        SUNNY     77  30  18 CALM      30.15F
DETROIT LAKES  SUNNY     72  34  25 SW8       30.17F
MOORHEAD       SUNNY     75  36  23 S5        30.14F
PARK RAPIDS    SUNNY     74  32  21 CALM      30.15F
MAHNOMEN       FAIR      74  35  23 S5        30.14F
$$
MNZ006-009>011-018-025>026-230000-
   North Central Minnesota

CITY           SKY/WX    TMP DP  RH WIND       PRES   REMARKS
BAUDETTE       MOSUNNY   74  37  26 W14       30.10S
FLAG ISLAND    MOSUNNY   75  37  25 SW12G25   30.04F
INTL FALLS     SUNNY     75  35  23 W7        30.10F
WASKISH        SUNNY     70  45  40 SW8       30.13F
BIG FORK       SUNNY     73  37  27 S10       30.14F
LONGVILLE      SUNNY     73  32  21 CALM      30.16S
GRAND RAPIDS   SUNNY     72  36  26 W8        30.16F
CRANE LAKE     MOSUNNY   72  28  20 CALM      30.13S
COOK           SUNNY     73  34  23 W6        30.14S
WALKER         FAIR      72  36  26 E6        30.15S
$$
MNZ012-019>021-037-230000-
   Northeast Minnesota

CITY           SKY/WX    TMP DP  RH WIND       PRES   REMARKS
DULUTH         MOSUNNY   73  31  21 SW5       30.16F
ELY            SUNNY     72  28  20 W3        30.13F
HIBBING        SUNNY     73  32  22 NW7       30.15S
EVELETH        SUNNY     72  34  25 SW12      30.15F
DULUTH HARBOR  SUNNY     45  39  81 NE6       30.19S
TWO HARBORS    SUNNY     64  39  39 SE5       30.15F
SILVER BAY     SUNNY     61  28  29 E3        30.15F
GRAND MARAIS     N/A     45  32  60 E3        30.20F
G MARAIS ARPRT SUNNY     57  25  28 S7        30.19S
$$
MNZ029>031-032-039>041-046>048-054>057-064-230000-
   West Central Minnesota

CITY           SKY/WX    TMP DP  RH WIND       PRES   REMARKS
FERGUS FALLS   SUNNY     73  34  23 SE5       30.15S
WHEATON        SUNNY     72  30  21 CALM      30.16S
MORRIS         MOSUNNY   75  30  19 S8        30.15S
ALEXANDRIA     SUNNY     72  33  24 S7        30.18F
ELBOW LAKE     FAIR      72  34  24 SE9G16    30.15F
WADENA         SUNNY     72  37  28 CALM      30.17S
GLENWOOD       SUNNY     73  30  20 NE2       30.18F
APPLETON       MOSUNNY   77  25  14 CALM      30.14F
BENSON         MOSUNNY   73  27  17 CALM      30.16S
ORTONVILLE     MOSUNNY   73  30  20 SE3       30.14F
MADISON        MOSUNNY   75  23  14 CALM      30.14F
WILLMAR        FAIR      75  34  22 SE7       30.17F
$$
MNZ033>034-036-042>043-049>051-058-059-230000-
   Central Minnesota

CITY           SKY/WX    TMP DP  RH WIND       PRES   REMARKS
ST CLOUD       SUNNY     72  34  24 CALM      30.17F
SAUK CENTRE    FAIR      72  33  23 CALM      30.18S
PAYNESVILLE    SUNNY     69  34  26 E6        30.18S
AITKIN         SUNNY     73  28  19 S5        30.15F
PINE RIVER     SUNNY     73  43  33 SE3       30.19S
BRAINERD       SUNNY     73  32  22 CALM      30.17F
STAPLES        SUNNY     72  34  25 CALM      30.17F
LONG PRAIRIE   FAIR      70  34  26 CALM      30.18S
LITTLE FALLS   SUNNY     70  30  23 CALM      30.18F
LITCHFIELD     MOSUNNY   73  34  23 CALM      30.19S
BUFFALO        SUNNY     71  34  25 S5        30.19S
MAPLE LAKE     SUNNY     73  37  27 CALM      30.19S
$$
MNZ037-044-045-052-053-230000-
   East Central Minnesota

CITY           SKY/WX    TMP DP  RH WIND       PRES   REMARKS
PRINCETON      SUNNY     73  36  25 CALM      30.18S
MORA           SUNNY     70  36  28 SW5       30.19F
CAMBRIDGE      SUNNY     73  46  38 W3        30.16F
RUSH CITY      SUNNY     71  33  25 CALM      30.18F
MOOSE LAKE     SUNNY     72  36  26 CALM      30.15F
HINCKLEY       FAIR      72  37  28 S7        30.18S
CLOQUET        SUNNY     72  27  18 S7        30.17S
MCGREGOR       SUNNY     72  34  25 SW3       30.17F
$$
MNZ071>073-080-081-089-090-097-098-230000-
   Southwest Minnesota

CITY           SKY/WX    TMP DP  RH WIND       PRES   REMARKS
MONTEVIDEO     MOSUNNY   79  30  17 CALM      30.15F
GRANITE FALLS  PTSUNNY   73  30  19 E3        30.16F
CANBY          PTSUNNY   74  34  23 E6        30.14F
MARSHALL       PTSUNNY   73  34  23 SE8       30.14F
REDWOOD FALLS  PTSUNNY   74  32  21 E7        30.15F
OLIVIA         MOSUNNY   72  32  23 S5        30.16S
PIPESTONE      CLOUDY    73  30  20 SE7       30.15F
WINDOM         CLOUDY    73  28  19 CALM      30.17F
WORTHINGTON    CLOUDY    73  30  20 S7        30.17S
JACKSON        CLOUDY    73  32  21 S7        30.18S
TRACY          CLOUDY    75  32  20 CALM      30.15F
SLAYTON        CLOUDY    73  30  20 CALM      30.16F
$$
MNZ065>067-074>077-082>085-091>093-230000-
   South Central Minnesota

CITY           SKY/WX    TMP DP  RH WIND       PRES   REMARKS
MANKATO        PTSUNNY   72  34  25 E7        30.18F
NEW ULM        PTSUNNY   72  30  21 E6        30.16F
ST JAMES       CLOUDY    75  28  17 S8        30.18S
FAIRMONT       CLOUDY    72  34  25 SE8       30.17F
GLENCOE        MOSUNNY   73  38  28 N7        30.17S
FARIBAULT      PTSUNNY   72  32  23 CALM      30.19S
OWATONNA       PTSUNNY   73  27  17 CALM      30.18F
WASECA         PTSUNNY   72  32  23 E3        30.19F
ALBERT LEA     CLOUDY    72  30  21 S6        30.19S
$$
MNZ078>079-086>088-094>096-230000-
   Southeast Minnesota

CITY           SKY/WX    TMP DP  RH WIND       PRES   REMARKS
ROCHESTER      PTSUNNY   71  29  21 CALM      30.20F
RED WING       MOSUNNY   73  34  23 SE5       30.17F
STANTON        PTSUNNY   73  34  24 CALM      30.18S
DODGE CENTER   PTSUNNY   72  30  21 CALM      30.19F
WINONA         PTSUNNY   72  36  26 CALM      30.19S
AUSTIN         CLOUDY    72  41  33 CALM      30.19S
PRESTON        PTSUNNY   69  32  24 E3        30.20F
$$
ABBREVIATIONS USED IN REMARKS
   TC - TEMPERATURES IN CELSIUS
  WCI - WIND CHILL INDEX
   HX - HEAT INDEX
  VSB - VISIBILITY
$$


USA.gov is the U.S. government's official web portal to all federal, state and local government web resources and services.